When you browse on this site, cookies collect data to enhance your experience and personalize the content and advertising you see.
Visit our Privacy Policy to learn more. By continuing to use the site, you agree to this use of cookies and data.
  • In Romania
  • List of Countries
  • For 7 days
  • Water Temperature
  • Satellite Maps
  • Weather Map
  • Weather Widgets
  • user-avatar
    Login

    Hourly Weather Libourne

    Today, 26 June, Wednesday

    Time Temperature Precipitation Wind Pressure Humidity
    00:00 +23°C° 0 mm 2 mps 758 mmHg 88%
    01:00 +21°C° 0 mm 2 mps 758 mmHg 83%
    02:00 +21°C° 0 mm 2 mps 758 mmHg 79%
    03:00 +20°C° 0 mm 2 mps 757 mmHg 74%
    04:00 +20°C° 0 mm 2 mps 757 mmHg 71%
    05:00 +20°C° 0 mm 2 mps 758 mmHg 69%
    06:00 +21°C° 0 mm 2 mps 758 mmHg 66%
    07:00 +24°C° 0 mm 3 mps 758 mmHg 65%
    08:00 +26°C° 0 mm 3 mps 758 mmHg 63%
    09:00 +28°C° 0 mm 4 mps 758 mmHg 61%
    10:00 +29°C° 0 mm 4 mps 758 mmHg 56%
    11:00 +31°C° 0 mm 3 mps 758 mmHg 51%
    12:00 +34°C° 0 mm 3 mps 758 mmHg 46%
    13:00 +35°C° 0 mm 3 mps 758 mmHg 44%
    14:00 +37°C° 0 mm 3 mps 757 mmHg 42%
    15:00 +38°C° 0 mm 3 mps 757 mmHg 40%
    16:00 +37°C° 0 mm 3 mps 757 mmHg 43%
    17:00 +36°C° 0 mm 3 mps 757 mmHg 46%
    18:00 +35°C° 0 mm 2 mps 757 mmHg 50%
    19:00 +33°C° 0 mm 3 mps 757 mmHg 51%
    20:00 +30°C° 0 mm 3 mps 757 mmHg 53%
    21:00 +28°C° 0 mm 3 mps 758 mmHg 55%
    22:00 +27°C° 0 mm 3 mps 758 mmHg 55%
    23:00 +26°C° 0 mm 3 mps 758 mmHg 54%

    Tomorrow, 27 June, Thursday

    Time Temperature Precipitation Wind Pressure Humidity
    00:00 +25°C° 0 mm 4 mps 758 mmHg 53%
    01:00 +24°C° 0 mm 3 mps 758 mmHg 55%
    02:00 +24°C° 0 mm 3 mps 758 mmHg 57%
    03:00 +22°C° 0 mm 3 mps 758 mmHg 59%
    04:00 +23°C° 0 mm 2 mps 759 mmHg 65%
    05:00 +23°C° 0 mm 2 mps 759 mmHg 71%
    06:00 +23°C° 0 mm 2 mps 759 mmHg 76%
    07:00 +25°C° 0 mm 2 mps 759 mmHg 71%
    08:00 +28°C° 0 mm 2 mps 760 mmHg 65%
    09:00 +30°C° 0 mm 1 mps 760 mmHg 60%
    10:00 +32°C° 0 mm 2 mps 760 mmHg 54%
    11:00 +35°C° 0 mm 2 mps 759 mmHg 49%
    12:00 +37°C° 0 mm 2 mps 759 mmHg 43%
    13:00 +38°C° 0 mm 2 mps 759 mmHg 40%
    14:00 +39°C° 0 mm 2 mps 759 mmHg 38%
    15:00 +40°C° 0 mm 2 mps 758 mmHg 35%
    16:00 +39°C° 0 mm 2 mps 758 mmHg 41%
    17:00 +38°C° 0 mm 2 mps 758 mmHg 46%
    18:00 +35°C° 0 mm 1 mps 757 mmHg 51%
    19:00 +33°C° 0 mm 1 mps 757 mmHg 55%
    20:00 +31°C° 0 mm 2 mps 758 mmHg 60%
    21:00 +29°C° 0 mm 2 mps 758 mmHg 65%
    22:00 +28°C° 0 mm 2 mps 758 mmHg 65%
    23:00 +28°C° 0 mm 2 mps 758 mmHg 65%

    Day after tomorrow, 28 June, Friday

    Time Temperature Precipitation Wind Pressure Humidity
    00:00 +27°C° 0 mm 1 mps 758 mmHg 64%
    01:00 +26°C° 0 mm 2 mps 758 mmHg 68%
    02:00 +25°C° 0 mm 2 mps 758 mmHg 72%
    03:00 +24°C° 0 mm 3 mps 758 mmHg 75%
    04:00 +22°C° 0 mm 3 mps 758 mmHg 78%
    05:00 +22°C° 0 mm 3 mps 759 mmHg 81%
    06:00 +21°C° 0 mm 3 mps 759 mmHg 84%
    07:00 +24°C° 0 mm 3 mps 759 mmHg 78%
    08:00 +25°C° 0 mm 2 mps 759 mmHg 73%
    09:00 +27°C° 0 mm 2 mps 759 mmHg 67%
    10:00 +29°C° 0 mm 2 mps 759 mmHg 61%
    11:00 +30°C° 0 mm 2 mps 759 mmHg 56%
    12:00 +32°C° 0 mm 2 mps 759 mmHg 50%
    13:00 +34°C° 0 mm 2 mps 759 mmHg 49%
    14:00 +35°C° 0 mm 2 mps 758 mmHg 47%
    15:00 +35°C° 0 mm 2 mps 758 mmHg 45%
    16:00 +34°C° 0 mm 2 mps 758 mmHg 52%
    17:00 +32°C° 0 mm 2 mps 758 mmHg 58%
    18:00 +31°C° 0 mm 2 mps 758 mmHg 64%
    19:00 +29°C° 0 mm 2 mps 758 mmHg 72%
    20:00 +26°C° 0 mm 2 mps 758 mmHg 80%
    21:00 +24°C° 0 mm 2 mps 758 mmHg 88%
    22:00 +23°C° 0 mm 2 mps 758 mmHg 88%
    23:00 +21°C° 0 mm 2 mps 758 mmHg 89%

    29 June, Saturday

    Time Temperature Precipitation Wind Pressure Humidity
    00:00 +20°C° 0 mm 2 mps 758 mmHg 90%
    01:00 +20°C° 0 mm 2 mps 758 mmHg 91%
    02:00 +19°C° 0 mm 2 mps 757 mmHg 91%
    03:00 +19°C° 0 mm 2 mps 757 mmHg 92%
    04:00 +19°C° 0 mm 2 mps 757 mmHg 91%
    05:00 +20°C° 0 mm 2 mps 757 mmHg 89%
    06:00 +20°C° 0 mm 2 mps 757 mmHg 88%
    07:00 +23°C° 0 mm 2 mps 758 mmHg 81%
    08:00 +25°C° 0 mm 2 mps 758 mmHg 74%
    09:00 +27°C° 0 mm 2 mps 758 mmHg 66%
    10:00 +28°C° 0 mm 2 mps 758 mmHg 62%
    11:00 +30°C° 0 mm 2 mps 758 mmHg 58%
    12:00 +32°C° 0 mm 2 mps 758 mmHg 54%
    13:00 +32°C° 0 mm 2 mps 758 mmHg 53%
    14:00 +33°C° 0 mm 3 mps 758 mmHg 53%
    15:00 +34°C° 0 mm 3 mps 758 mmHg 52%
    16:00 +31°C° 0 mm 3 mps 758 mmHg 58%
    17:00 +29°C° 0 mm 3 mps 758 mmHg 64%
    18:00 +27°C° 0 mm 4 mps 758 mmHg 70%
    19:00 +25°C° 0 mm 3 mps 758 mmHg 77%
    20:00 +22°C° 0 mm 3 mps 759 mmHg 84%
    21:00 +20°C° 0 mm 2 mps 759 mmHg 91%
    22:00 +19°C° 0 mm 2 mps 759 mmHg 93%
    23:00 +19°C° 0 mm 2 mps 760 mmHg 94%

    30 June, Sunday

    Time Temperature Precipitation Wind Pressure Humidity
    00:00 +19°C° 0 mm 1 mps 760 mmHg 96%
    01:00 +19°C° 0 mm 1 mps 760 mmHg 96%
    02:00 +18°C° 0 mm 1 mps 760 mmHg 95%
    03:00 +18°C° 0 mm 1 mps 759 mmHg 95%
    04:00 +19°C° 0 mm 1 mps 760 mmHg 92%
    05:00 +17°C° 0 mm 0 mps 760 mmHg 89%
    06:00 +18°C° 0 mm 0 mps 760 mmHg 86%
    07:00 +20°C° 0 mm 0 mps 760 mmHg 80%
    08:00 +24°C° 0 mm 1 mps 760 mmHg 74%
    09:00 +26°C° 0 mm 1 mps 760 mmHg 68%
    10:00 +28°C° 0 mm 1 mps 760 mmHg 64%
    11:00 +29°C° 0 mm 1 mps 760 mmHg 59%
    12:00 +31°C° 0 mm 1 mps 760 mmHg 55%
    13:00 +32°C° 0 mm 1 mps 759 mmHg 53%
    14:00 +33°C° 0 mm 1 mps 759 mmHg 52%
    15:00 +34°C° 0 mm 1 mps 758 mmHg 51%
    16:00 +33°C° 0 mm 1 mps 758 mmHg 55%
    17:00 +32°C° 0 mm 2 mps 758 mmHg 59%
    18:00 +32°C° 0 mm 2 mps 757 mmHg 63%
    19:00 +30°C° 0 mm 2 mps 758 mmHg 71%
    20:00 +28°C° 0 mm 2 mps 758 mmHg 79%
    21:00 +25°C° 0 mm 2 mps 759 mmHg 87%
    22:00 +25°C° 0 mm 2 mps 759 mmHg 86%
    23:00 +25°C° 0 mm 3 mps 759 mmHg 86%

    1 July, Monday

    Time Temperature Precipitation Wind Pressure Humidity
    00:00 +24°C° 0 mm 3 mps 759 mmHg 85%
    01:00 +24°C° 0 mm 3 mps 759 mmHg 87%
    02:00 +23°C° 0 mm 2 mps 758 mmHg 89%
    03:00 +23°C° 0 mm 1 mps 758 mmHg 90%
    04:00 +23°C° 0 mm 1 mps 759 mmHg 87%
    05:00 +23°C° 0 mm 1 mps 759 mmHg 83%
    06:00 +23°C° 0 mm 2 mps 759 mmHg 80%
    07:00 +25°C° 0 mm 2 mps 759 mmHg 75%
    08:00 +26°C° 0 mm 2 mps 760 mmHg 70%
    09:00 +27°C° 0 mm 2 mps 760 mmHg 64%
    10:00 +29°C° 0 mm 2 mps 760 mmHg 61%
    11:00 +30°C° 0 mm 2 mps 760 mmHg 58%
    12:00 +33°C° 0 mm 3 mps 760 mmHg 55%
    13:00 +33°C° 0 mm 3 mps 760 mmHg 56%
    14:00 +33°C° 0 mm 3 mps 759 mmHg 56%
    15:00 +33°C° 0 mm 4 mps 759 mmHg 57%
    16:00 +32°C° 0 mm 4 mps 759 mmHg 60%
    17:00 +30°C° 0 mm 4 mps 758 mmHg 64%
    18:00 +29°C° 0 mm 4 mps 758 mmHg 67%
    19:00 +28°C° 0 mm 4 mps 759 mmHg 70%
    20:00 +26°C° 0 mm 4 mps 759 mmHg 73%
    21:00 +25°C° 0 mm 3 mps 759 mmHg 76%
    22:00 +24°C° 0 mm 3 mps 759 mmHg 76%
    23:00 +24°C° 0 mm 3 mps 759 mmHg 77%
    Show more